Location: Paderno d�Adda
(45.6667°N, 9.4333°E)
Time: 01:18:11
(UTC+00:00)

COSMOS 2406 - Pass Details

Date: 19 September 2020
Orbit: 844 x 863 km, 71.0° (Epoch: 26 October)

Event Time Altitude Azimuth Distance (km) Brightness Sun altitude
Rises 20:36:20 0° 332° (NNW) 3,413 7.3 -31.6°
Reaches altitude 10° 20:38:47 10° 332° (NNW) 2,474 6.4 -31.9°
Enters shadow 20:43:09 55° 321° (NW) 1,017 3.8 -32.4°
